SCP
0 0 0 0 0 0 0 0 0 0 0 0 0 0 0 0 0 0 0 0 0 0 0 0 0 0 0 0 0 0 0 0 0 0 0 0 0 0 0 0 0 0 0 0 0 0 0 0 0
0 0 0 0 0 0 0 0 0 0 0 0 0 0 0 0 0 0 0 0 0 0 0 0 0 0 0 0 0 0 0 0 0 0 0 0 0 0 0 0 0 0 0 0 0 0 0 0 0
0 0 0 0 0 0 0 0 0 0 0 0 0 0 0 0 0 0 0 0 0 0 0 0 0 0 0 0 0 0 0 0 0 0 0 0 0 0 0 0 0 0 0 0 0 0 0 0 0
0 0 0 0 0 0 0 0 0 0 0 0 0 0 0 0 0 0 0 0 0 0 0 0 0 0 0 0 0 0 0 0 0 0 0 0 0 0 0 0 0 0 0 0 0 0 0 0 0
0 0 0 0 0 0 0 0 0 0 0 0 0 0 0 0 0 0 0 0 0 0 0 0 0 0 0 0 0 0 0 0 0 0 0 0 0 0 0 0 0 0 0 0 0 0 0 0 0
0 0 0 0 0 0 0 0 0 0 0 0 0 0 0 0 0 0 0 0 0 0 0 0 0 0 0 0 0 0 0 0 0 0 0 0 0 0 0 0 0 0 0 0 0 0 0 0 0
0 0 0 0 0 0 0 0 0 0 0 0 0 0 0 0 0 0 0 0 0 0 0 0 0 0 0 0 0 0 0 0 0 0 0 0 0 0 0 0 0 0 0 0 0 0 0 0 0
0 0 0 0 0 0 0 0 0 0 0 0 0 0 0 0 0 0 0 0 0 0 0 0 0 0 0 0 0 0 0 0 0 0 0 0 0 0 0 0 0 0 0 0 0 0 0 0 0
0 0 0 0 0 0 0 0 0 0 0 0 0 0 0 0 0 0 0 0 0 0 0 0 0 0 0 0 0 0 0 0 0 0 0 0 0 0 0 0 0 0 0 0 0 0 0 0 0
0 0 0 0 0 0 0 0 -0 0 0 0 0 0 0 0 0 0 0 0 0 0 0 0 0 0 0 0 0 0 0 0 0 0 0 0 0 0 0 0 0 0 0 0 0 0 0 0 0
0 0 0 0 0 0 0 0 -0 0 0 0 0 0 0 0 0 0 0 0 0 0 0 0 0 0 0 0 0 0 0 0 0 0 0 0 0 0 0 0 0 0 0 0 0 0 0 0 0
0 0 0 0 0 0 0 0 0 0 0 0 0 0 0 0 0 0 0 0 0 0 0 0 0 0 0 0 0 0 0 0 0 0 0 0 0 0 0 0 0 0 0 0 0 0 0 0 0
0 0 0 0 0 0 0 0 0 0 0 0 0 0 0 0 0 0 0 0 0 0 0 0 0 0 0 0 0 0 0 0 0 0 0 0 0 0 0 0 0 0 0 0 0 0 0 0 0
0 0 0 0 0 0 0 0 0 0 0 0 0 0 0 0 0 0 0 0 0 0 0 0 0 0 0 0 0 0 0 0 0 0 0 0 0 0 0 0 0 0 0 0 0 0 0 0 0
0 0 0 0 0 0 0 0 0 0 0 0 0 0 0 0 0 0 0 0 0 0 0 0 0 0 0 0 0 0 0 0 0 0 0 0 0 0 0 0 0 0 0 0 0 0 0 0 0
0 0 0 0 0 0 -0 -0 0 0 -0 -0 0 0 0 0 0 0 0 0 0 0 0 0 0 0 0 0 0 0 0 0 0 0 0 0 0 0 0 0 0 0 0 0 0 0 0 0 0
0 0 0 0 0 0 -0 -0 0 0 0 -0 0 0 0 0 0 0 0 0 0 0 0 0 0 0 0 0 0 0 0 0 0 0 0 0 0 0 0 0 0 0 0 0 0 0 0 0 0
0 0 0 0 -0 -0 -0 -0 -0 0 0 0 0 0 0 0 0 0 0 0 0 0 0 0 0 0 0 0 0 0 0 0 0 0 0 0 0 0 0 0 0 0 0 0 0 0 0 0 0
0 0 0 0 -0 -0 -0 -0 -0 0 0 0 0 -0 0 0 0 0 0 0 0 0 0 0 0 0 0 0 0 0 0 0 0 0 0 0 0 0 0 0 0 0 0 0 0 0 0 0 0
0 0 0 0 0 -0 -0 -0 -0 -0 0 0 0 -0 -0 -0 0 0 0 0 0 0 0 0 0 0 0 0 0 0 0 0 0 0 0 0 0 0 0 0 0 0 0 0 0 0 0 0 0
0 0 0 0 0 -0 -0 -0 -0 -0 0 0 0 0 0 0 0 0 0 0 0 0 0 0 0 0 0 0 0 0 0 0 0 0 0 0 0 0 0 0 0 0 0 0 0 0 0 0 0
0 0 0 0 0 0 -0 -0 -0 -0 0 0 0 0 0 0 0 0 0 0 0 0 0 0 0 0 0 0 0 0 0 0 0 0 0 0 0 0 0 0 0 0 0 0 0 0 0 0 0
0 0 0 0 0 0 0 0 -0 0 0 0 0 0 0 0 0 0 0 0 0 0 0 0 0 0 0 0 0 0 0 0 0 0 0 0 0 0 0 0 0 0 0 0 0 0 0 0 0
0 0 0 0 0 0 0 0 0 0 0 0 0 0 0 0 0 0 0 0 0 0 0 0 0 0 0 0 0 0 0 0 0 0 0 0 0 0 0 0 0 0 0 0 0 0 0 0 0
0 0 0 0 0 0 0 0 0 0 0 0 0 0 0 0 0 0 0 0 0 0 0 0 0 0 0 0 0 0 0 0 0 0 0 0 0 0 0 0 0 0 0 0 0 0 0 0 0
0 0 0 0 0 0 0 0 0 0 0 0 0 0 0 0 0 0 0 0 0 0 0 0 0 0 0 0 0 0 0 0 0 0 0 0 0 0 0 0 0 0 0 0 0 0 0 0 0
0 0 0 0 0 0 0 0 0 0 0 0 0 0 0 0 0 0 0 0 0 0 0 0 0 0 0 0 0 0 0 0 0 0 0 0 0 0 0 0 0 0 0 0 0 0 0 0 0
0 0 0 0 0 0 0 0 0 0 0 0 0 0 0 0 0 0 0 0 0 0 0 0 0 0 0 0 0 0 0 0 0 0 -0 0 0 0 0 0 0 0 0 0 0 0 0 0 0
0 0 0 0 0 0 0 0 0 0 0 0 0 0 0 0 0 0 0 0 0 0 0 0 0 0 0 0 0 0 0 0 0 0 -0 -0 0 0 0 0 0 0 0 0 0 0 0 0 0
0 0 0 0 0 0 0 0 0 0 0 0 0 0 0 0 0 0 0 0 0 0 0 0 0 0 0 0 0 0 0 0 0 0 -0 -0 -0 0 0 0 0 0 0 0 0 0 0 0 0
Wind_Speed
7 3 2 4 6 4 1 3 2 1 1 0 1 2 4 3 3 2 0 2 4 4 4 4 5 6 6 6 6 6 6 6 6 6 6 6 6 6 6 6 6 7 7 7 8 8 8 8 8
3 2 4 5 5 1 4 3 3 2 2 1 2 2 2 0 0 1 0 1 4 4 4 4 5 6 6 6 6 6 6 6 6 6 6 6 6 5 5 5 6 6 7 7 7 8 8 8 8
1 4 5 5 3 5 4 3 3 0 0 1 2 2 1 0 0 1 1 3 4 4 3 3 6 6 6 6 6 6 6 6 5 5 5 5 5 5 4 5 5 5 6 6 6 7 7 7 8
3 5 5 4 3 4 3 1 2 1 1 1 2 1 0 1 0 1 2 4 5 4 3 3 5 6 6 6 6 6 5 5 5 5 4 5 5 5 5 5 5 5 5 6 6 6 6 7 7
4 4 4 1 3 2 2 1 3 1 0 0 2 1 1 1 2 3 4 4 5 4 3 3 4 5 5 5 5 5 5 5 4 4 4 4 5 5 5 5 6 6 6 6 6 6 6 7 7
4 4 3 3 3 2 1 1 2 1 1 0 2 2 1 1 3 3 4 3 4 4 3 3 4 4 4 5 4 4 4 4 4 4 4 4 5 5 5 5 5 5 5 6 6 6 6 6 7
4 4 3 3 2 2 2 1 3 2 1 2 3 3 1 0 1 3 3 3 3 3 3 2 2 2 3 3 3 4 4 4 4 3 3 4 4 5 5 5 5 5 5 6 6 6 6 6 7
4 4 2 2 3 4 1 1 1 2 2 0 3 3 3 2 3 3 4 3 3 2 2 2 2 2 1 2 3 4 3 3 3 3 4 4 5 5 5 4 4 4 5 5 5 6 6 6 7
3 3 3 4 5 3 1 1 1 1 1 1 1 1 1 4 5 4 3 2 2 1 1 2 2 2 1 2 2 3 3 3 2 3 4 4 2 2 2 3 4 4 4 5 5 6 6 6 6
3 3 5 3 3 2 1 1 1 1 1 1 1 1 2 4 5 5 4 5 4 4 2 2 2 2 2 2 2 1 1 1 1 2 2 2 2 1 2 3 3 3 4 4 5 5 5 5 3
2 4 2 1 1 1 1 1 1 3 4 5 5 4 4 4 4 5 5 5 5 4 3 2 3 2 2 2 1 1 1 1 1 1 1 1 1 1 1 1 1 2 3 2 3 3 2 2 2
2 1 1 1 0 1 2 1 1 4 6 4 4 4 5 6 7 8 7 5 4 4 4 3 3 3 3 2 2 2 1 1 1 1 1 1 1 1 1 1 1 1 1 1 1 1 2 2 2
1 1 1 1 1 0 1 3 3 6 6 3 1 3 6 7 7 6 6 5 5 5 5 4 4 4 3 3 2 2 2 2 1 1 1 1 1 1 1 1 1 1 1 1 1 1 1 1 2
1 0 1 2 1 1 2 4 3 8 4 2 3 4 6 7 6 5 5 6 6 6 6 5 5 4 4 3 3 2 2 2 2 1 2 2 2 2 2 1 1 1 1 1 1 1 1 1 1
1 1 3 2 1 1 1 6 7 6 3 4 5 5 6 6 5 6 7 7 7 7 6 6 6 5 4 4 4 2 2 2 2 2 2 2 2 2 2 2 1 1 1 1 1 1 1 1 1
2 1 2 3 1 1 1 10 5 3 4 5 6 6 6 6 6 6 6 5 5 5 6 6 5 5 5 4 3 2 2 2 2 2 2 2 2 2 2 2 2 2 2 2 2 1 1 1 1
1 1 3 4 1 1 3 9 5 1 3 6 6 6 6 6 6 6 6 5 5 5 5 6 5 6 5 4 3 2 2 2 2 2 2 2 2 2 2 2 2 2 2 2 2 1 1 1 1
4 3 3 4 2 2 5 10 10 4 5 7 7 7 6 7 8 6 5 5 5 5 5 5 5 5 4 3 2 2 2 2 2 2 2 2 2 3 2 2 2 2 2 2 2 2 1 1 2
2 3 4 4 2 2 8 12 13 8 6 7 7 7 7 8 6 4 5 4 4 4 5 6 6 5 4 3 3 3 3 2 2 2 3 3 2 3 3 2 2 3 3 3 3 2 2 1 2
2 3 4 4 1 2 7 12 10 7 7 8 9 9 8 6 4 4 4 4 5 5 6 6 6 6 6 4 3 3 2 2 2 2 2 3 3 3 3 3 3 3 3 3 3 3 2 1 1
3 4 4 4 4 2 5 9 5 4 3 4 6 6 6 8 7 6 5 6 5 6 6 6 6 6 6 5 2 2 1 1 1 2 2 3 3 3 3 4 3 3 3 3 4 4 4 3 2
4 3 3 2 2 4 2 6 7 4 5 5 5 5 6 6 6 5 5 5 6 6 5 5 6 6 5 5 5 5 4 4 4 3 2 2 3 3 3 4 4 3 3 3 4 4 3 4 3
3 0 1 1 1 3 1 3 11 3 5 6 6 5 5 5 5 5 6 6 6 5 4 4 5 5 5 6 6 5 4 3 2 2 2 2 2 3 3 4 3 3 3 3 3 3 3 3 3
2 2 2 3 2 3 4 4 9 4 6 5 4 4 4 4 3 4 3 2 3 2 3 3 4 4 5 6 5 6 5 4 3 3 3 2 2 2 3 3 3 3 3 3 3 4 4 4 3
2 3 3 4 3 6 2 4 11 6 4 3 4 4 4 3 2 2 2 2 2 2 2 3 4 4 4 5 5 5 6 5 5 4 4 3 3 3 4 3 3 3 3 3 3 4 4 4 4
3 4 6 4 5 5 2 7 9 4 3 3 3 3 3 3 2 3 3 3 3 3 3 3 4 4 4 4 4 4 4 4 4 4 4 4 4 4 4 4 4 3 3 3 3 3 3 3 4
4 3 3 4 1 3 6 7 9 3 3 3 4 4 4 4 3 3 3 2 2 3 3 4 4 3 3 4 4 3 3 3 4 4 3 3 3 3 4 4 4 4 3 3 3 3 3 3 3
2 4 4 4 3 4 6 5 5 5 4 4 4 4 4 4 3 3 3 2 2 2 2 2 3 3 3 3 3 3 3 3 3 3 3 3 3 3 4 4 4 3 3 3 3 2 2 3 3
4 3 3 3 3 4 4 8 5 4 2 3 4 4 4 3 3 3 3 3 2 1 0 1 1 1 1 2 2 2 2 2 2 2 3 3 3 3 4 4 4 4 3 3 3 3 3 4 3
3 5 6 4 4 4 3 9 3 2 1 2 4 4 4 3 3 2 3 3 3 2 1 0 1 1 1 1 1 1 1 1 1 2 2 2 2 2 3 3 3 3 3 3 4 4 4 4 4
Wind_Direction
340 342 59 57 58 54 237 245 203 208 219 303 108 123 140 149 161 191 290 137 129 142 156 163 149 136 126 118 109 104 103 100 100 106 104 100 95 91 88 85 82 81 82 85 82 80 80 80 79
332 1 53 60 94 148 256 238 208 212 195 104 60 74 89 111 21 111 120 164 133 140 145 154 139 134 127 122 117 111 108 104 101 106 106 104 101 95 90 85 84 84 83 83 84 83 81 83 84
1 43 78 81 127 186 220 213 200 252 356 109 75 48 108 207 145 179 216 148 129 130 132 148 136 134 128 124 121 116 109 106 103 107 109 110 106 98 93 88 83 82 84 83 84 85 82 82 84
63 47 58 83 201 219 220 215 157 116 17 67 116 85 315 2 230 175 126 127 124 118 111 131 131 132 127 124 122 119 113 109 106 107 108 99 93 88 89 84 78 79 82 81 83 83 80 83 83
60 78 75 73 240 253 242 202 162 154 185 63 121 152 257 352 65 99 114 123 128 123 108 118 120 132 129 125 125 123 118 113 106 102 108 103 100 93 86 82 75 73 75 80 80 79 78 83 85
65 73 108 212 239 266 267 191 151 155 187 130 136 154 228 30 91 118 123 120 126 128 114 116 119 116 123 124 123 120 117 112 107 100 98 104 102 97 89 84 79 75 73 76 78 77 75 82 87
110 114 167 193 215 254 240 161 157 169 190 216 172 158 250 7 134 129 116 110 111 114 109 108 115 115 107 106 116 117 111 106 99 92 91 93 91 87 81 81 81 78 75 73 77 76 77 82 85
122 113 146 195 203 240 217 138 148 163 211 207 140 169 233 207 139 114 98 97 109 113 116 118 106 104 103 107 97 94 94 90 88 81 80 82 81 79 76 73 76 76 74 74 77 78 80 78 81
91 96 198 206 197 226 161 131 355 11 105 44 106 204 245 128 124 116 108 105 141 145 149 150 143 132 125 119 101 91 85 84 82 76 78 77 74 75 72 72 73 75 75 74 78 80 78 71 76
99 174 214 202 190 191 180 171 187 59 356 266 293 337 102 130 147 155 169 185 189 194 196 184 172 165 155 143 121 110 94 89 87 90 91 84 76 70 68 66 67 65 69 72 73 74 74 69 69
133 192 194 207 215 167 178 248 198 165 237 225 216 210 170 171 182 190 199 203 204 199 194 196 186 181 171 160 143 137 121 111 101 103 102 99 86 70 63 68 51 53 62 66 63 60 63 70 82
122 261 196 225 195 145 191 213 231 211 235 240 213 189 185 195 202 207 210 217 209 201 204 202 195 186 186 173 169 161 151 156 156 154 141 130 119 104 103 98 84 74 74 82 77 77 82 82 90
159 246 299 289 356 261 248 240 240 251 255 265 205 180 202 212 219 222 218 219 213 210 206 203 200 194 191 180 181 170 176 180 183 175 175 162 157 165 159 141 126 106 101 108 104 87 113 112 103
158 82 312 317 302 294 255 266 242 255 245 226 207 215 220 221 225 227 225 220 219 218 211 202 202 198 193 189 188 188 185 185 177 179 190 184 175 176 171 160 145 139 129 131 136 136 137 135 122
75 32 332 298 262 268 323 279 233 242 206 225 232 235 235 235 231 228 228 222 220 221 211 205 201 196 195 195 194 184 186 181 182 189 189 186 180 178 171 164 167 163 144 136 121 107 100 115 98
47 40 299 285 216 236 177 266 263 213 194 236 245 245 243 243 234 232 228 227 225 219 212 207 201 195 197 197 193 184 181 182 191 192 188 187 182 171 165 168 177 164 149 145 138 137 109 123 114
29 244 253 284 236 207 206 260 273 226 213 247 253 251 249 253 250 239 230 225 223 218 210 204 200 195 196 195 190 179 179 190 188 187 193 192 184 174 171 179 177 161 153 154 155 141 148 153 125
215 226 247 256 268 227 251 265 280 270 237 248 253 252 249 248 248 239 229 225 221 213 206 201 200 199 189 181 173 168 177 198 191 190 196 189 187 177 174 174 171 165 160 161 157 152 144 153 146
167 197 252 259 265 261 258 270 276 268 252 251 251 249 248 249 252 240 229 223 211 203 202 202 199 197 182 179 182 188 203 210 209 202 197 192 186 179 179 179 174 172 172 176 170 154 149 147 127
207 248 263 286 304 271 285 279 271 250 234 231 235 240 244 253 260 249 234 221 216 214 209 208 205 198 193 192 190 193 187 203 209 206 201 199 190 186 187 184 184 183 177 173 173 165 155 164 159
227 221 239 269 318 297 311 300 276 263 246 250 242 242 244 239 241 241 233 227 221 220 216 213 208 201 195 184 160 130 128 131 177 205 214 215 201 191 191 191 186 184 182 189 191 183 172 180 190
239 224 218 257 328 302 9 299 290 280 292 272 264 255 251 251 244 241 235 232 226 226 220 212 203 198 191 179 176 176 186 200 207 200 211 212 200 193 191 187 187 188 192 200 200 195 188 174 191
198 125 158 216 213 299 273 252 285 316 290 276 268 264 264 261 250 244 237 231 228 222 217 212 199 195 188 183 185 186 196 207 197 177 192 202 203 199 194 187 186 187 196 204 198 191 192 191 195
139 72 60 56 71 281 230 203 279 256 246 277 283 284 285 283 271 264 264 248 236 219 212 204 192 199 189 186 188 192 197 192 185 191 198 211 213 204 199 191 193 193 192 197 203 198 193 199 201
110 100 28 355 350 256 212 218 253 255 249 258 280 292 308 307 297 288 280 264 239 213 210 201 189 196 193 190 196 200 204 195 197 201 201 208 211 209 209 197 197 200 201 197 197 197 199 201 200
182 159 160 202 240 283 262 239 254 256 273 278 291 304 331 332 319 298 270 256 245 224 207 195 195 198 193 192 201 202 201 200 206 206 201 208 214 212 199 197 198 200 198 194 195 200 207 204 207
159 192 169 135 146 284 271 277 295 269 305 336 345 351 339 323 318 306 300 277 254 229 209 199 194 193 198 204 200 198 196 204 210 208 201 210 219 210 194 194 199 200 196 195 192 205 211 202 208
176 153 132 147 176 263 286 270 257 286 303 334 338 327 315 319 321 326 325 313 288 246 214 177 185 196 200 199 206 208 203 211 215 207 207 211 210 201 192 192 195 199 201 200 198 207 208 204 217
165 170 160 153 175 183 263 270 232 239 280 300 302 308 306 306 305 314 324 328 327 339 158 169 180 187 196 200 198 204 209 205 206 209 213 220 215 201 197 195 192 198 205 205 205 213 206 213 222
193 188 167 178 221 204 225 265 265 209 292 300 308 319 322 321 324 332 338 355 358 347 330 243 208 212 227 205 177 199 209 159 188 234 228 218 217 209 206 196 194 201 205 205 208 215 213 216 221